Location: Asheville, NC
(35.6000°N, 82.5500°W)
Time: 06:35:06

Hubble Space Telescope - Pass Details

Date: 08 March 2018
Orbit: 537 x 541 km, 28.5° (Epoch: 16 March)

Event Time Altitude Azimuth Distance (km) Brightness Sun altitude
Rises 19:59:58 0° 210° (SSW) 2,665 4.6 -18.7°
Reaches altitude 10° 20:03:50 10° 174° (S) 1,777 3.3 -19.5°
Enters shadow 20:03:54 10° 173° (S) 1,770 3.2 -19.5°
